Flag for U.S.A. Weather past 2 weeks in Owensboro, Kentucky, U.S.A.

Now
84 °F

Partly sunny.


Feels Like: 91 °F
Forecast: 69 / 86 °F
Wind: 14 mph from Southwest

Location: Owensboro / Daviess

Current Time: Sep 1, 2014 at 6:07:35 PM

Latest Report: Sep 1, 2014 at 4:56 PM


Visibility: 10 mi

Pressure: 29.95 "Hg

Humidity: 70%

Dew point: 73 °F

Location of OwensboroLocation

Historic Weather in Owensboro — Graph

°F

Owensboro temperature yesterday

Maximum temperature yesterday: 82 °F (at 5:56 PM)
Minimum temperature yesterday: 73 °F (at 5:56 AM)
Average temperature yesterday: 77 °F

Past Weeks' High & Low Weather Summary

 TemperatureHumidityPressure
High93 °F (Aug 21, 2:56 PM)100% (Aug 17, 5:56 PM)30.12 "Hg (Aug 17, 5:56 PM)
Low32 °F (Aug 28, 5:56 AM)5% (Aug 29, 1:56 AM)29.79 "Hg (Aug 19, 5:56 PM)
Average79 °F80%29.97 "Hg
* Reported Aug 17 4:56 PM — Sep 1 4:56 PM, Owensboro, Weather by CustomWeather, © 2014

Note: Actual official high and low records may vary slightly from our data, if they occured in-between our weather recording intervals... More about our weather records

Advertising

Owensboro weather history for previous 24 hours

 ConditionsComfort  
Time TempWeatherWind HumidityBarometerVisibility
4:56 PM
Sep 1
84 °FPartly sunny.14 mph70%29.95 "Hg10 mi
3:56 PM84 °FScattered clouds.9 mph70%29.93 "Hg10 mi
2:56 PM84 °FScattered clouds.18 mph70%29.92 "Hg10 mi
1:56 PM84 °FPassing clouds.16 mph66%29.93 "Hg10 mi
12:56 PM84 °FPartly sunny.14 mph70%29.95 "Hg10 mi
11:56 AM82 °FPartly sunny.18 mph74%29.88 "Hg10 mi
10:56 AM82 °FBroken clouds.12 mph74%29.98 "Hg10 mi
10:16 AM81 °FBroken clouds.15 mph84%29.99 "Hg10 mi
9:56 AM82 °FScattered clouds.14 mph79%29.99 "Hg10 mi
8:56 AM79 °FMostly cloudy.13 mph89%30.01 "Hg10 mi
7:56 AM75 °FPartly sunny.10 mph100%30.00 "Hg10 mi
6:56 AM73 °FPassing clouds.7 mph100%30.01 "Hg10 mi
9:56 PM
Aug 31
73 °FClear.5 mph50%29.98 "Hg10 mi
8:56 PM75 °FClear.3 mph100%29.98 "Hg10 mi
7:56 PM77 °FPassing clouds.2 mph94%29.97 "Hg10 mi
6:56 PM79 °FScattered clouds.3 mph89%29.98 "Hg10 mi
Weather by CustomWeather, © 2014

See weather overviewHow to use our weather pages